This is the latest recevied weather packets stored in our database for station/object LZ1PDB-12. If no packets are shown the sender has not sent any weather packets the latest 10 day(s).
| Time | Temp. | Humidity | Pressure | Rain* | Wind** | Luminosity | Snow |
|---|---|---|---|---|---|---|---|
| 1777560024 | 12.22° C | 50% | 1025.6 hPa | - | - | - | - |
| 1777559123 | 12.22° C | 51% | 1025.7 hPa | - | - | - | - |
| 1777558223 | 12.22° C | 51% | 1025.6 hPa | - | - | - | - |
| 1777557323 | 12.22° C | 51% | 1025.6 hPa | - | - | - | - |
| 1777556423 | 12.22° C | 52% | 1025.6 hPa | - | - | - | - |
| 1777555523 | 12.22° C | 52% | 1025.6 hPa | - | - | - | - |
| 1777554623 | 12.22° C | 52% | 1025.6 hPa | - | - | - | - |
| 1777553722 | 12.78° C | 52% | 1025.8 hPa | - | - | - | - |
| 1777552822 | 12.22° C | 53% | 1025.7 hPa | - | - | - | - |
| 1777551922 | 12.78° C | 52% | 1025.8 hPa | - | - | - | - |
| 1777551022 | 12.78° C | 51% | 1025.7 hPa | - | - | - | - |
| 1777550122 | 12.78° C | 52% | 1025.9 hPa | - | - | - | - |
| 1777549222 | 12.22° C | 54% | 1025.8 hPa | - | - | - | - |
| 1777548322 | 12.78° C | 52% | 1025.6 hPa | - | - | - | - |
| 1777547421 | 12.78° C | 51% | 1025.5 hPa | - | - | - | - |
| 1777546521 | 12.22° C | 54% | 1025.3 hPa | - | - | - | - |
| 1777545621 | 12.78° C | 53% | 1025.3 hPa | - | - | - | - |
| 1777544721 | 12.78° C | 52% | 1025.2 hPa | - | - | - | - |
| 1777543821 | 12.78° C | 52% | 1025.1 hPa | - | - | - | - |
| 1777542920 | 12.78° C | 54% | 1025 hPa | - | - | - | - |
| 1777542020 | 12.22° C | 54% | 1025.1 hPa | - | - | - | - |
| 1777541120 | 12.22° C | 55% | 1025 hPa | - | - | - | - |
| 1777540220 | 12.22° C | 55% | 1024.8 hPa | - | - | - | - |
| 1777539320 | 12.78° C | 54% | 1024.7 hPa | - | - | - | - |
| 1777538419 | 12.78° C | 54% | 1024.6 hPa | - | - | - | - |
* Rain since midnight (hover to see other rain measurements)
** Current wind speed in m/s (hover to see current wind gust speed)